Home > Weather > Hefei > Past weeks

Flag for China Weather for the Past 2 Weeks in Hefei, Anhui, China

Now
61 °F

Clear.


Feels Like: 61 °F
Forecast: 56 / 87 °F
Wind: 3 mph from Southeast

Location: Hefei Airport

Current Time: May 4, 2016 at 12:39:22 AM

Latest Report: May 4, 2016 at 12:00 AM


Visibility: 10 mi

Pressure: 29.86 "Hg

Humidity: 72%

Dew Point: 52 °F

Location of HefeiLocation

Historic Weather in Hefei — Graph

°F

Hefei Temperature Yesterday

Maximum temperature yesterday: 77 °F (at 2:00 PM)
Minimum temperature yesterday: 57 °F (at 4:00 AM)
Average temperature yesterday: 67 °F

High & Low Weather Summary for the Past Weeks

 TemperatureHumidityPressure
High86 °F (Apr 30, 2:00 PM)100% (Apr 20, 8:00 AM)30.07 "Hg (Apr 20, 8:00 AM)
Low50 °F (Apr 28, 6:00 AM)26% (May 3, 2:00 PM)29.62 "Hg (May 2, 3:00 AM)
Average66 °F76%29.86 "Hg
* Reported Apr 18 11:00 PM — May 3 11:00 PM, Hefei, Weather by CustomWeather, © 2016

Note: Actual official high and low records may vary slightly from our data, if they occured in-between our weather recording intervals... More about our weather records

Advertising

Hefei Weather History for the Previous 24 Hours

Scroll right to see more
 ConditionsComfort  
Time TempWeatherWind HumidityBarometerVisibility
11:00 PM
Tue, May 3
63 °FClear.6 mph68%29.86 "Hg10 mi
10:00 PM63 °FClear.3 mph64%29.83 "Hg10 mi
9:00 PM63 °FClear.6 mph68%29.83 "Hg10 mi
8:00 PM68 °FClear.3 mph53%29.83 "Hg10 mi
7:00 PM72 °FClear.3 mph44%29.80 "Hg10 mi
6:00 PM75 °FSunny.6 mph36%29.80 "Hg10 mi
5:00 PM77 °FSunny.10 mph30%29.80 "Hg10 mi
4:00 PM77 °FSunny.15 mph28%29.83 "Hg10 mi
3:00 PM77 °FSunny.17 mph26%29.83 "Hg10 mi
2:00 PM77 °FSunny.20 mph26%29.86 "Hg10 mi
1:00 PM75 °FSunny.17 mph27%29.86 "Hg10 mi
12:00 PM75 °FSunny.17 mph29%29.89 "Hg10 mi
11:00 AM75 °FSunny.15 mph34%29.89 "Hg10 mi
10:00 AM72 °FPassing clouds.15 mph41%29.89 "HgN/A
9:00 AM68 °FSunny.15 mph49%29.89 "Hg10 mi
8:00 AM66 °FSunny.10 mph64%29.89 "Hg10 mi
7:00 AM61 °FSunny.8 mph77%29.86 "Hg10 mi
6:00 AM57 °FSunny.6 mph88%29.83 "Hg10 mi
5:00 AM57 °FClear.8 mph94%29.83 "Hg10 mi
4:00 AM57 °FClear.6 mph94%29.80 "Hg10 mi
3:00 AM59 °FClear.6 mph77%29.80 "Hg10 mi
2:00 AM59 °FClear.8 mph82%29.80 "Hg10 mi
1:00 AM61 °FClear.8 mph83%29.80 "Hg10 mi
12:00 AM61 °FClear.10 mph83%29.83 "Hg10 mi
Weather by CustomWeather, © 2016

See weather overviewHow to use our weather pages